Location: Lombard
(41.8800°N, 88.0080°W)
Time: 12:46:04
(UTC-06:00)

SR - Visible Passes

Search period start: 07 February 2023 00:00
Search period end: 17 February 2023 00:00
Orbit: 581 x 869 km, 66.7° (Epoch: 06 February)

Date Brightness Start Highest point End Pass type
(mag) Time Alt. Az. Time Alt. Az. Time Alt. Az.
14 Feb ? 19:45:20 10° NNW 19:46:20 16° N 19:46:20 16° N visible
15 Feb ? 18:55:32 10° N 18:57:34 17° NNE 18:57:34 17° NNE visible
15 Feb ? 20:36:37 10° NW 20:36:57 12° NW 20:36:57 12° NW visible
16 Feb ? 19:46:04 10° NNW 19:48:17 29° NNW 19:48:17 29° NNW visible
